• In Hungary
  • List of Countries
  • For 7 days
  • Water Temperature
  • Satellite Maps
  • Weather Map
  • News
  • Weather Widgets
  • user-avatar
    Login

    Hourly Weather Horodets'

    Today, 23 October, Monday

    Time Temperature Precipitation Wind Pressure Humidity
    00:00 +1°C° 0 mm 2 mps 736 mmHg 79%
    01:00 0°C° 0 mm 3 mps 736 mmHg 79%
    02:00 0°C° 0 mm 3 mps 736 mmHg 79%
    03:00 0°C° 0 mm 3 mps 735 mmHg 79%
    04:00 -1°C° 0 mm 3 mps 735 mmHg 78%
    05:00 -1°C° 0 mm 3 mps 735 mmHg 78%
    06:00 0°C° 0 mm 3 mps 735 mmHg 76%
    07:00 0°C° 0 mm 3 mps 735 mmHg 74%
    08:00 -1°C° 0 mm 4 mps 735 mmHg 72%
    09:00 0°C° 0 mm 4 mps 735 mmHg 68%
    10:00 +3°C° 0 mm 4 mps 735 mmHg 64%
    11:00 +4°C° 0 mm 4 mps 735 mmHg 59%
    12:00 +4°C° 0 mm 4 mps 735 mmHg 58%
    13:00 +4°C° 0 mm 4 mps 735 mmHg 58%
    14:00 +5°C° 0 mm 4 mps 735 mmHg 57%
    15:00 +4°C° 0.1 mm 4 mps 735 mmHg 60%
    16:00 +4°C° 0.1 mm 4 mps 735 mmHg 62%
    17:00 +3°C° 0.1 mm 3 mps 735 mmHg 65%
    18:00 +3°C° 0.1 mm 4 mps 735 mmHg 66%
    19:00 +3°C° 0.1 mm 4 mps 735 mmHg 67%
    20:00 +3°C° 0.1 mm 4 mps 735 mmHg 68%
    21:00 +3°C° 0.1 mm 4 mps 735 mmHg 68%
    22:00 +3°C° 0.1 mm 4 mps 736 mmHg 68%
    23:00 +1°C° 0.1 mm 4 mps 736 mmHg 67%

    Tomorrow, 24 October, Tuesday

    Time Temperature Precipitation Wind Pressure Humidity
    00:00 +1°C° 0.1 mm 4 mps 736 mmHg 67%
    01:00 +1°C° 0.1 mm 4 mps 737 mmHg 66%
    02:00 +1°C° 0.1 mm 4 mps 737 mmHg 65%
    03:00 +1°C° 0 mm 4 mps 737 mmHg 65%
    04:00 +1°C° 0 mm 4 mps 737 mmHg 64%
    05:00 +1°C° 0 mm 4 mps 737 mmHg 63%
    06:00 +1°C° 0 mm 4 mps 738 mmHg 63%
    07:00 +1°C° 0 mm 4 mps 738 mmHg 62%
    08:00 +1°C° 0 mm 4 mps 739 mmHg 61%
    09:00 +1°C° 0 mm 4 mps 739 mmHg 58%
    10:00 +3°C° 0 mm 4 mps 740 mmHg 56%
    11:00 +3°C° 0 mm 4 mps 740 mmHg 53%
    12:00 +4°C° 0 mm 4 mps 740 mmHg 52%
    13:00 +4°C° 0 mm 4 mps 740 mmHg 51%
    14:00 +4°C° 0 mm 4 mps 741 mmHg 50%
    15:00 +3°C° 0 mm 4 mps 741 mmHg 54%
    16:00 +2°C° 0 mm 3 mps 741 mmHg 58%
    17:00 +2°C° 0 mm 3 mps 741 mmHg 62%
    18:00 +1°C° 0 mm 3 mps 741 mmHg 66%
    19:00 0°C° 0 mm 3 mps 742 mmHg 69%
    20:00 -1°C° 0 mm 2 mps 742 mmHg 73%
    21:00 -1°C° 0 mm 2 mps 742 mmHg 76%
    22:00 -1°C° 0 mm 2 mps 743 mmHg 78%
    23:00 -2°C° 0 mm 2 mps 743 mmHg 81%

    Day after tomorrow, 25 October, Wednesday

    Time Temperature Precipitation Wind Pressure Humidity
    00:00 -2°C° 0 mm 2 mps 743 mmHg 83%
    01:00 -3°C° 0 mm 2 mps 743 mmHg 84%
    02:00 -3°C° 0 mm 2 mps 743 mmHg 85%
    03:00 -3°C° 0 mm 2 mps 743 mmHg 85%
    04:00 -3°C° 0 mm 2 mps 743 mmHg 86%
    05:00 -3°C° 0 mm 2 mps 743 mmHg 86%
    06:00 -3°C° 0 mm 2 mps 743 mmHg 83%
    07:00 -3°C° 0 mm 2 mps 743 mmHg 81%
    08:00 -2°C° 0 mm 2 mps 744 mmHg 78%
    09:00 -1°C° 0 mm 2 mps 744 mmHg 71%
    10:00 +2°C° 0 mm 2 mps 744 mmHg 63%
    11:00 +4°C° 0 mm 2 mps 744 mmHg 55%
    12:00 +4°C° 0 mm 2 mps 743 mmHg 53%
    13:00 +5°C° 0 mm 2 mps 743 mmHg 51%
    14:00 +7°C° 0 mm 1 mps 743 mmHg 49%
    15:00 +5°C° 0 mm 1 mps 742 mmHg 55%
    16:00 +4°C° 0 mm 1 mps 742 mmHg 61%
    17:00 +3°C° 0 mm 1 mps 742 mmHg 68%
    18:00 +1°C° 0 mm 2 mps 741 mmHg 68%
    19:00 +1°C° 0 mm 2 mps 741 mmHg 68%
    20:00 +1°C° 0 mm 2 mps 741 mmHg 69%
    21:00 +1°C° 0 mm 3 mps 741 mmHg 68%
    22:00 +1°C° 0 mm 3 mps 740 mmHg 66%
    23:00 +1°C° 0 mm 3 mps 740 mmHg 65%

    26 October, Thursday

    Time Temperature Precipitation Wind Pressure Humidity
    00:00 0°C° 0.4 mm 4 mps 739 mmHg 67%
    01:00 0°C° 0.4 mm 4 mps 738 mmHg 69%
    02:00 0°C° 0.4 mm 4 mps 738 mmHg 71%
    03:00 0°C° 0.7 mm 4 mps 737 mmHg 75%
    04:00 0°C° 0.7 mm 4 mps 737 mmHg 79%
    05:00 0°C° 0.7 mm 4 mps 736 mmHg 83%
    06:00 0°C° 0.1 mm 4 mps 736 mmHg 86%
    07:00 +2°C° 0.1 mm 3 mps 735 mmHg 89%
    08:00 +2°C° 0.1 mm 3 mps 735 mmHg 92%
    09:00 +3°C° 0 mm 3 mps 735 mmHg 91%
    10:00 +5°C° 0 mm 3 mps 735 mmHg 91%
    11:00 +7°C° 0 mm 3 mps 735 mmHg 90%
    12:00 +8°C° 0 mm 3 mps 735 mmHg 87%
    13:00 +9°C° 0 mm 3 mps 734 mmHg 84%
    14:00 +10°C° 0 mm 4 mps 734 mmHg 81%
    15:00 +9°C° 0 mm 3 mps 734 mmHg 85%
    16:00 +8°C° 0 mm 3 mps 734 mmHg 89%
    17:00 +8°C° 0 mm 3 mps 733 mmHg 93%
    18:00 +7°C° 0 mm 3 mps 733 mmHg 94%
    19:00 +7°C° 0 mm 3 mps 733 mmHg 94%
    20:00 +7°C° 0 mm 3 mps 732 mmHg 95%
    21:00 +7°C° 0.1 mm 3 mps 732 mmHg 95%
    22:00 +7°C° 0.1 mm 3 mps 732 mmHg 96%
    23:00 +7°C° 0.1 mm 2 mps 731 mmHg 96%

    27 October, Friday

    Time Temperature Precipitation Wind Pressure Humidity
    00:00 +7°C° 0.1 mm 2 mps 731 mmHg 97%
    01:00 +7°C° 0.1 mm 2 mps 730 mmHg 97%
    02:00 +6°C° 0.1 mm 2 mps 730 mmHg 97%
    03:00 +7°C° 0.1 mm 2 mps 729 mmHg 97%
    04:00 +7°C° 0.1 mm 2 mps 729 mmHg 97%
    05:00 +7°C° 0.1 mm 2 mps 728 mmHg 97%
    06:00 +7°C° 0 mm 2 mps 728 mmHg 96%
    07:00 +7°C° 0 mm 3 mps 728 mmHg 95%
    08:00 +7°C° 0 mm 3 mps 727 mmHg 95%
    09:00 +8°C° 0 mm 3 mps 727 mmHg 91%
    10:00 +8°C° 0 mm 3 mps 727 mmHg 88%
    11:00 +9°C° 0 mm 3 mps 727 mmHg 85%
    12:00 +9°C° 0.1 mm 3 mps 726 mmHg 85%
    13:00 +9°C° 0.1 mm 3 mps 726 mmHg 85%
    14:00 +9°C° 0.1 mm 2 mps 725 mmHg 84%
    15:00 +8°C° 0.3 mm 2 mps 725 mmHg 88%
    16:00 +8°C° 0.3 mm 1 mps 724 mmHg 92%
    17:00 +8°C° 0.3 mm 1 mps 724 mmHg 95%
    18:00 +8°C° 0.9 mm 1 mps 723 mmHg 96%
    19:00 +7°C° 0.9 mm 1 mps 723 mmHg 97%
    20:00 +7°C° 0.9 mm 1 mps 723 mmHg 98%
    21:00 +7°C° 0.4 mm 1 mps 723 mmHg 97%
    22:00 +6°C° 0.4 mm 2 mps 723 mmHg 97%
    23:00 +6°C° 0.4 mm 2 mps 722 mmHg 97%

    28 October, Saturday

    Time Temperature Precipitation Wind Pressure Humidity
    00:00 +6°C° 0.1 mm 2 mps 723 mmHg 96%
    01:00 +5°C° 0.1 mm 3 mps 723 mmHg 96%
    02:00 +5°C° 0.1 mm 3 mps 723 mmHg 95%
    03:00 +5°C° 0 mm 3 mps 723 mmHg 94%
    04:00 +5°C° 0 mm 3 mps 723 mmHg 93%
    05:00 +5°C° 0 mm 4 mps 723 mmHg 91%
    06:00 +5°C° 0 mm 4 mps 723 mmHg 90%
    07:00 +5°C° 0 mm 4 mps 722 mmHg 89%
    08:00 +5°C° 0 mm 4 mps 722 mmHg 87%
    09:00 +6°C° 0 mm 4 mps 722 mmHg 85%
    10:00 +6°C° 0 mm 4 mps 721 mmHg 84%
    11:00 +6°C° 0 mm 4 mps 721 mmHg 82%
    12:00 +7°C° 0.2 mm 5 mps 720 mmHg 80%
    13:00 +7°C° 0.2 mm 6 mps 720 mmHg 78%
    14:00 +7°C° 0.2 mm 6 mps 719 mmHg 76%
    15:00 +7°C° 0.3 mm 6 mps 718 mmHg 78%
    16:00 +5°C° 0.3 mm 6 mps 718 mmHg 80%
    17:00 +4°C° 0.3 mm 6 mps 717 mmHg 81%
    18:00 +4°C° 0.3 mm 6 mps 716 mmHg 81%
    19:00 +4°C° 0.3 mm 7 mps 715 mmHg 81%
    20:00 +5°C° 0.3 mm 7 mps 714 mmHg 81%
    21:00 +5°C° 0.9 mm 7 mps 713 mmHg 81%
    22:00 +5°C° 0.9 mm 8 mps 713 mmHg 82%
    23:00 +5°C° 0.9 mm 8 mps 712 mmHg 83%
    Show more